星链-37182(STARLINK-37182)

导读

STARLINK-37182(NORAD编号68348)是美国SpaceX公司星链(Starlink)卫星互联网项目的一员,属于低轨通信卫星。它被部署在约550公里高度的近地轨道,依托星链星座组网,为全球提供低时延卫星互联网接入服务。作为星链第二批次组网卫星,它配备相控阵天线与氩气推进系统,可实现动态波束调度和轨道机动,支持包括宽带互联网接入、潜在手机直连等服务,是SpaceX构建全球低轨卫星通信网络的组成单元,目前在轨正常运行。

Basic Information
目录编号:
68348
目录名称:
STARLINK-37182
国际标识:
2026-059AD
轨道中心:
EARTH
卫星名称:
星链-37182
卫星全名:
星链-37182(STARLINK-37182)
卫星状态:
在轨 (已飞行173 天)
发射日期:
2026-03-22 UTC
国别 :
美国 (US)
星等 :
--
This satellite is enrolled in the Space Conjunction Data Service (SCDS) and the current flight risk assessment level is: No High Risk
Orbit Information
数据来源 国际轨道数据
星历时间: 2026-09-10T21:34:33+0800
18小时前
查看轨道信息
半长轴: 6840.846km
偏心率: 0.0002872
轨道倾角: 53.153°
近地点辐角 87.566°
升交点赤经 202.228°
平近点角 272.567°
近地点: 460.744km
远地点: 464.674km
周期: 93.848分钟
每日圈数: 15.343983
Detailed Information
固有亮度:
5
最大亮度:
2.5
卫星平台:
Starlink V1.0
覆盖范围:
全球
运营商:
太空探索技术公司
运营商所在国:
美国
制造商(研发单位):
太空探索技术公司
制造商所在国:
美国
使用方式:
暂无
Satellite Introduction
Starlink 计划是 SpaceX 推出的全球卫星互联网项目,通过发射低轨道卫星,为全球尤其是偏远地区提供高速、低延迟的互联网服务。自 2019 年起,Starlink 已部署数千颗卫星,旨在缩小全球数字鸿沟,推动互联网普及。该项目还为军事、航空等行业提供通信支持,带来广泛经济效益。
2D Orbit Map
3D Orbit Map
Orbit Altitude Analysis Chart
Orbit Inclination Analysis Chart
Orbit Comprehensive Analysis Chart
View Comprehensive Chart
Conjunction Data List
Event ID Objects TCA Miss Dist (km) Collision Risk Probability Collision Risk Index (CRI) Action
CDM_260913-143706-014906-834821
2026-09-13T
14:37:23+0000
0.516 km
远距离
6.714582E-5 中风险 0.72
CDM_260912-153705-866206-834821
2026-09-12T
15:37:56+0000
0.867 km
远距离
4.382132E-5 中风险 0.68
CDM_260913-131106-026506-834821
2026-09-13T
13:11:36+0000
1.303 km
极远距离
6.510835E-6 低风险 0.51
CDM_260912-180505-237906-834821
2026-09-12T
18:05:56+0000
2.084 km
极远距离
2.169092E-6 低风险 0.42
CDM_260912-151904-765506-834822
2026-09-12T
15:19:37+0000
2.210 km
极远距离
1.548392E-6 低风险 0.39
CDM_260913-113706-026506-834821
2026-09-13T
11:37:49+0000
2.227 km
极远距离
1.424711E-6 低风险 0.38
Miss Distance Evolution Trend with All Objects
Collision Probability Evolution Trend with All Objects